Location: Newark
(39.6867°N, 100.6772°W)
Time: 13:12:56
(UTC+00:00)

Vanguard 1 Rocket - Pass Details

Date: 30 October 2019
Orbit: 651 x 4225 km, 34.3° (Epoch: 11 November)

Event Time Altitude Azimuth Distance (km) Brightness Sun altitude
Rises 15:20:25 0° 246° (WSW) 4,106 10.5 21.2°
Reaches altitude 10° 15:22:40 10° 242° (WSW) 3,424 10.2 21.5°
Maximum altitude 15:31:34 64° 164° (SSE) 2,267 10.2 22.8°
Drops below altitude 10° 15:49:24 10° 89° (E) 6,426 12.4 25.2°
Sets 15:55:30 0° 87° (E) 7,889 12.7 26.0°
